Showing default

EUTE 9B, 41310

Orbit data source: Space-Track

EUTE 9B, 41310 is a payload satellite owned by EutelsatSA (FR) in GEO that was launched on Fri, 29 Jan 2016 UTC via a PROTON-M/BRIZ-M launch vehicle from the Tyuratam Missile And Space Complex (TTMTR). Payload-class satellites include a variety of spacecraft equipped with specific instruments for various scientific and technological missions. These include communications satellites like Starlink; space stations such as the ISS; scientific satellites like the Hubble; Earth observation satellites from companies like Planet Labs, Umbra, and HawkEye 360; GPS; miniature CubeSats for education and research; and military/defense satellites.

Not visible in the next 10 days
Identifier
41310, 2016-005A
Orbit
GEO
Last TLE update
23 hours ago
Origin
Manufacturer
Airbus/Toulouse
Mission
Operational Commercial Communications
Bus & Motor
EUROSTAR 3000, R-4D?
Mass
~5,162 kg wet, ~3,000 kg dry
Launch date (UTC)
2016-01-29 (9 years ago)
Launch vehicle
PROTON-M/BRIZ-M
Launch site
Tyuratam Missile And Space Complex (TTMTR)
Object type
Payload
Rocket body
Debris
Shape & HBR
Box + 2 Pan, 39 m
Radar Cross Section
46.485 m², Large (>1 m²)

Expand to show TLE details & history

TLE from 23 hours ago
0 EUTE 9B
1 41310U 16005A   25189.35056333  .00000079  00000-0  00000-0 0  9990
2 41310   0.0192  38.7328 0001389  68.1554 314.8643  1.00275934 34663
Epoch: 2025-07-08T08:24Z
TLE epoch observation values (Epoch: 2025-07-08T08:24:48.671Z)
Latitude
0.02204°
Longitude
8.9931°
Altitude
35,780.763 km
Speed
3.075 km/s
True Right ascension
04h 06m 58s
True Declination
0° 01' 19"
Sunlit
Object was in daylight at epoch
Visualization orbit readout
Latitude
0.01529°
Longitude
-0.47099°
Altitude
35,781.425 km
Speed
3.075 km/s
Apparent Right ascension
03h 52m 14s
Apparent Declination
-5° 13' 32"
Sunlit
Object is in daylight
Visualization observer readout
Local Sidereal Time
19:52:36
Azimuth
73.926° E
Elevation
-26.057°
Doppler factor
1
Orbital elements
Apogee altitude
35,792.359 km
Perigee altitude
35,780.646 km
Semi-major axis
42,164.639 km
Eccentricity
0.00014
Inclination
0.0192°
RAAN
38.7328°
Arg. of periapsis
68.1554°
True anomaly
Unknown
Mean anomaly
314.8643°
Eccentric anomaly
Unknown
Mean motion
0.25068 °/min
Orbital period
1,436.09 mins
BSTAR
0
Loading historical data...
41310 neighbors
Loading maneuver chart data...
Loading SW <> Apogee altitude chart data...
Loading historical data...
Loading historical data...
Loading historical data...
Loading historical data...
Loading historical data...
Loading historical data...
Loading historical data...
Other satellites on launch #5 in the year 2016 (2016-01-29 UTC)

EUTE 9B Visibility

Observer location: undefined°, undefined°

EUTE 9B is likely not visible in the next few days
Span
Click to sort rows by Start time (UTC) header in descending order
Start Az.
Max El. time (UTC)
Max El. Az.
Max El.
End time (UTC)
End Az.
|